DEBGN EDXH-EDHL

Flight info

Callsign DEBGN
Flight time 0h 42m
Altitude 15000
Route WANZA DCT RENSU DCT SOKWO DCT BOGMU BOGMU2R
Aircraft BT36/L-BDFGLORY/S

Departure

Time 2026-04-25 19:58
Airport Helgoland-Düne Airport (EDXH)

Arrival

Time 2026-04-25 20:41
Airport Lübeck Blankensee Airport (EDHL)
Time Latitude Longitude Altitude Speed Heading
2026-04-25 19:52 54.18654 7.91467 1 ft 0 kts 143°
2026-04-25 19:56 54.18658 7.91488 4 ft 1 kts 49°
2026-04-25 19:56 54.18632 7.91493 3 ft 15 kts 241°
2026-04-25 19:56 54.18613 7.91439 3 ft 9 kts 236°
2026-04-25 19:57 54.18556 7.91401 4 ft 16 kts 147°
2026-04-25 19:57 54.18423 7.91571 5 ft 32 kts 144°
2026-04-25 19:57 54.18328 7.91674 8 ft 8 kts 248°
2026-04-25 19:57 54.18332 7.91652 8 ft 0 kts 322°
2026-04-25 19:58 54.18362 7.91619 7 ft 30 kts 327°
2026-04-25 19:58 54.18725 7.91188 58 ft 84 kts 324°
2026-04-25 19:58 54.19248 7.90727 506 ft 85 kts 332°
2026-04-25 19:58 54.19728 7.90266 1134 ft 75 kts 327°
2026-04-25 19:59 54.20308 7.89986 1397 ft 104 kts 357°
2026-04-25 19:59 54.21037 7.90564 1686 ft 133 kts 35°
2026-04-25 19:59 54.21446 7.92125 1960 ft 161 kts 78°
2026-04-25 19:59 54.21125 7.94060 2235 ft 180 kts 113°
2026-04-25 20:00 54.20444 7.95894 2507 ft 184 kts 115°
2026-04-25 20:00 54.20053 7.97201 2700 ft 182 kts 104°
2026-04-25 20:00 54.19668 7.99938 3048 ft 177 kts 86°
2026-04-25 20:00 54.19621 8.02016 3310 ft 174 kts 79°
2026-04-25 20:01 54.19817 8.06109 3825 ft 173 kts 73°
2026-04-25 20:01 54.19973 8.08150 4011 ft 176 kts 72°
2026-04-25 20:01 54.20154 8.10287 4038 ft 187 kts 72°
2026-04-25 20:02 54.20343 8.12518 4050 ft 192 kts 72°
2026-04-25 20:02 54.20533 8.14793 4056 ft 195 kts 73°
2026-04-25 20:02 54.20726 8.17096 4058 ft 197 kts 73°
2026-04-25 20:02 54.20920 8.19414 4110 ft 195 kts 73°
2026-04-25 20:03 54.21102 8.21659 4369 ft 187 kts 72°
2026-04-25 20:03 54.21435 8.23726 4632 ft 176 kts 58°
2026-04-25 20:03 54.21856 8.25683 4907 ft 176 kts 62°
2026-04-25 20:03 54.22152 8.27727 5163 ft 179 kts 69°
2026-04-25 20:04 54.22332 8.29842 5396 ft 181 kts 73°
2026-04-25 20:04 54.22439 8.32006 5652 ft 184 kts 75°
2026-04-25 20:04 54.22507 8.34198 5913 ft 186 kts 76°
2026-04-25 20:04 54.22559 8.36413 6181 ft 187 kts 77°
2026-04-25 20:05 54.22603 8.38647 6448 ft 189 kts 77°
2026-04-25 20:05 54.22645 8.40899 6699 ft 190 kts 77°
2026-04-25 20:05 54.22686 8.43168 6942 ft 192 kts 77°
2026-04-25 20:05 54.22726 8.45451 7187 ft 193 kts 77°
2026-04-25 20:06 54.22766 8.47749 7430 ft 194 kts 77°
2026-04-25 20:06 54.22806 8.50057 7681 ft 195 kts 76°
2026-04-25 20:06 54.22847 8.52372 8009 ft 193 kts 76°
2026-04-25 20:06 54.22885 8.54641 8395 ft 190 kts 75°
2026-04-25 20:07 54.22924 8.56882 8783 ft 188 kts 75°
2026-04-25 20:07 54.22963 8.59112 9177 ft 188 kts 74°
2026-04-25 20:07 54.23002 8.61340 9576 ft 188 kts 74°
2026-04-25 20:07 54.23040 8.63576 9982 ft 189 kts 73°
2026-04-25 20:08 54.23078 8.65820 10352 ft 189 kts 73°
2026-04-25 20:08 54.23114 8.68075 10714 ft 190 kts 73°
2026-04-25 20:08 54.23149 8.70332 11083 ft 190 kts 72°
2026-04-25 20:08 54.23185 8.72591 11455 ft 190 kts 72°
2026-04-25 20:09 54.23220 8.74856 11826 ft 191 kts 72°
2026-04-25 20:09 54.23255 8.77122 12207 ft 191 kts 71°
2026-04-25 20:09 54.23292 8.79387 12593 ft 191 kts 71°
2026-04-25 20:09 54.23330 8.81656 12986 ft 191 kts 70°
2026-04-25 20:10 54.23367 8.83927 13381 ft 191 kts 70°
2026-04-25 20:10 54.23402 8.86199 13782 ft 191 kts 69°
2026-04-25 20:10 54.23436 8.88471 14153 ft 191 kts 69°
2026-04-25 20:10 54.23469 8.90749 14510 ft 192 kts 69°
2026-04-25 20:11 54.23502 8.93031 14867 ft 192 kts 69°
2026-04-25 20:11 54.23548 8.95401 14974 ft 208 kts 70°
2026-04-25 20:11 54.23597 8.97949 15001 ft 219 kts 72°
2026-04-25 20:11 54.23626 9.00564 15011 ft 221 kts 73°
2026-04-25 20:12 54.23648 9.03203 15014 ft 222 kts 73°
2026-04-25 20:12 54.23672 9.05850 15052 ft 223 kts 71°
2026-04-25 20:12 54.23711 9.08623 15034 ft 226 kts 71°
2026-04-25 20:12 54.23720 9.09425 15031 ft 226 kts 71°
2026-04-25 20:13 54.23755 9.13830 15017 ft 221 kts 71°
2026-04-25 20:13 54.23781 9.16449 15004 ft 220 kts 71°
2026-04-25 20:13 54.23809 9.19053 15002 ft 219 kts 71°
2026-04-25 20:13 54.23838 9.21650 15004 ft 218 kts 71°
2026-04-25 20:14 54.23868 9.24242 15008 ft 218 kts 71°
2026-04-25 20:14 54.23898 9.26828 15010 ft 217 kts 71°
2026-04-25 20:14 54.23927 9.29411 15007 ft 217 kts 71°
2026-04-25 20:14 54.23956 9.31995 15008 ft 217 kts 71°
2026-04-25 20:15 54.23985 9.34575 15009 ft 217 kts 71°
2026-04-25 20:15 54.24012 9.37160 15009 ft 218 kts 71°
2026-04-25 20:15 54.24039 9.39746 15009 ft 218 kts 71°
2026-04-25 20:15 54.24061 9.42336 15008 ft 219 kts 72°
2026-04-25 20:16 54.24036 9.44948 15006 ft 220 kts 73°
2026-04-25 20:16 54.24033 9.47552 15008 ft 218 kts 71°
2026-04-25 20:16 54.24060 9.50136 15010 ft 217 kts 70°
2026-04-25 20:16 54.24102 9.52712 15009 ft 217 kts 70°
2026-04-25 20:17 54.24144 9.55287 15009 ft 217 kts 70°
2026-04-25 20:17 54.24183 9.57866 15008 ft 217 kts 70°
2026-04-25 20:17 54.24219 9.60447 15005 ft 219 kts 69°
2026-04-25 20:17 54.24269 9.63147 14714 ft 233 kts 71°
2026-04-25 20:18 54.24305 9.65943 14429 ft 237 kts 72°
2026-04-25 20:18 54.24324 9.68777 14123 ft 240 kts 73°
2026-04-25 20:18 54.24334 9.71635 13803 ft 240 kts 73°
2026-04-25 20:18 54.24338 9.74435 13457 ft 239 kts 75°
2026-04-25 20:19 54.24080 9.77326 13105 ft 255 kts 95°
2026-04-25 20:19 54.23263 9.80089 12758 ft 268 kts 122°
2026-04-25 20:19 54.21929 9.82344 12410 ft 270 kts 133°
2026-04-25 20:19 54.20647 9.84652 12088 ft 266 kts 128°
2026-04-25 20:20 54.19439 9.87029 11760 ft 264 kts 126°
2026-04-25 20:20 54.18252 9.89400 11433 ft 262 kts 126°
2026-04-25 20:20 54.17068 9.91748 11110 ft 260 kts 127°
2026-04-25 20:20 54.15906 9.94019 11038 ft 249 kts 127°
2026-04-25 20:21 54.14769 9.96232 11018 ft 247 kts 127°
2026-04-25 20:21 54.13622 9.98443 10989 ft 245 kts 128°
2026-04-25 20:21 54.12492 10.00604 10997 ft 243 kts 128°
2026-04-25 20:21 54.11380 10.02717 10996 ft 242 kts 128°
2026-04-25 20:22 54.10261 10.04858 10995 ft 241 kts 127°
2026-04-25 20:22 54.09888 10.05586 10994 ft 241 kts 127°
2026-04-25 20:22 54.08063 10.09165 10994 ft 241 kts 127°
2026-04-25 20:22 54.06938 10.11372 10640 ft 253 kts 128°
2026-04-25 20:23 54.05766 10.13650 10285 ft 258 kts 129°
2026-04-25 20:23 54.04581 10.15951 9922 ft 259 kts 129°
2026-04-25 20:23 54.03392 10.18259 9514 ft 259 kts 129°
2026-04-25 20:23 54.02207 10.20558 9106 ft 258 kts 129°
2026-04-25 20:24 54.01031 10.22842 8722 ft 256 kts 129°
2026-04-25 20:24 53.99862 10.25108 8334 ft 254 kts 129°
2026-04-25 20:24 53.98750 10.27405 7949 ft 248 kts 120°
2026-04-25 20:24 53.98034 10.29980 7562 ft 236 kts 99°
2026-04-25 20:25 53.97807 10.32633 7183 ft 220 kts 80°
2026-04-25 20:25 53.97761 10.35169 7026 ft 207 kts 83°
2026-04-25 20:25 53.97666 10.37519 6977 ft 193 kts 82°
2026-04-25 20:25 53.97583 10.39836 6624 ft 200 kts 82°
2026-04-25 20:26 53.97507 10.42219 6242 ft 203 kts 83°
2026-04-25 20:26 53.97429 10.44620 5851 ft 204 kts 83°
2026-04-25 20:26 53.97350 10.47014 5466 ft 202 kts 83°
2026-04-25 20:26 53.97272 10.49386 5098 ft 200 kts 84°
2026-04-25 20:27 53.97219 10.50910 5036 ft 189 kts 83°
2026-04-25 20:27 53.97143 10.53046 5000 ft 175 kts 83°
2026-04-25 20:27 53.97079 10.55063 4995 ft 168 kts 82°
2026-04-25 20:27 53.97022 10.57087 4694 ft 178 kts 83°
2026-04-25 20:28 53.96960 10.59231 4324 ft 185 kts 83°
2026-04-25 20:28 53.96889 10.61438 3946 ft 189 kts 84°
2026-04-25 20:28 53.96812 10.63674 3581 ft 191 kts 84°
2026-04-25 20:28 53.96735 10.65929 3224 ft 192 kts 85°
2026-04-25 20:29 53.96657 10.68168 3036 ft 184 kts 85°
2026-04-25 20:29 53.96582 10.70272 3009 ft 174 kts 84°
2026-04-25 20:29 53.96512 10.72272 2963 ft 167 kts 83°
2026-04-25 20:29 53.96449 10.74297 2689 ft 176 kts 83°
2026-04-25 20:30 53.96382 10.76401 2411 ft 180 kts 84°
2026-04-25 20:30 53.96309 10.78546 2136 ft 184 kts 85°
2026-04-25 20:30 53.96234 10.80706 2022 ft 180 kts 86°
2026-04-25 20:30 53.96156 10.82775 1997 ft 172 kts 85°
2026-04-25 20:31 53.96086 10.84768 1983 ft 166 kts 85°
2026-04-25 20:31 53.96019 10.86710 1974 ft 163 kts 85°
2026-04-25 20:31 53.95951 10.88617 1973 ft 161 kts 85°
2026-04-25 20:31 53.95554 10.90430 1985 ft 169 kts 117°
2026-04-25 20:32 53.94899 10.92104 2000 ft 171 kts 121°
2026-04-25 20:32 53.94206 10.93755 2001 ft 172 kts 122°
2026-04-25 20:32 53.93498 10.95403 2003 ft 173 kts 123°
2026-04-25 20:32 53.92780 10.97054 2001 ft 174 kts 123°
2026-04-25 20:33 53.92059 10.98705 1989 ft 174 kts 123°
2026-04-25 20:33 53.91339 11.00352 1988 ft 174 kts 123°
2026-04-25 20:33 53.90618 11.01999 1971 ft 173 kts 123°
2026-04-25 20:33 53.90074 11.02981 1966 ft 173 kts 147°
2026-04-25 20:34 53.88596 11.03354 1975 ft 156 kts 210°
2026-04-25 20:34 53.87631 11.02588 1987 ft 152 kts 219°
2026-04-25 20:34 53.86709 11.01716 1974 ft 150 kts 225°
2026-04-25 20:34 53.86140 11.00436 1973 ft 133 kts 255°
2026-04-25 20:35 53.85751 10.99033 1975 ft 130 kts 258°
2026-04-25 20:35 53.85424 10.97615 1971 ft 128 kts 262°
2026-04-25 20:35 53.85151 10.96201 1976 ft 128 kts 264°
2026-04-25 20:35 53.84898 10.94763 1978 ft 127 kts 265°
2026-04-25 20:36 53.84651 10.93389 1982 ft 107 kts 265°
2026-04-25 20:36 53.84433 10.92351 1970 ft 87 kts 268°
2026-04-25 20:36 53.84252 10.91363 1973 ft 88 kts 270°
2026-04-25 20:36 53.84079 10.90339 1970 ft 92 kts 269°
2026-04-25 20:37 53.83894 10.89294 1969 ft 93 kts 268°
2026-04-25 20:37 53.83692 10.88250 1977 ft 94 kts 267°
2026-04-25 20:37 53.83475 10.87158 1820 ft 98 kts 266°
2026-04-25 20:37 53.83254 10.86085 1695 ft 97 kts 265°
2026-04-25 20:38 53.83042 10.85000 1544 ft 97 kts 265°
2026-04-25 20:38 53.82830 10.83911 1428 ft 97 kts 265°
2026-04-25 20:38 53.82617 10.82818 1290 ft 98 kts 264°
2026-04-25 20:38 53.82408 10.81726 1150 ft 97 kts 265°
2026-04-25 20:39 53.82218 10.80636 1018 ft 97 kts 262°
2026-04-25 20:39 53.82016 10.79537 868 ft 98 kts 261°
2026-04-25 20:39 53.81793 10.78445 732 ft 97 kts 259°
2026-04-25 20:39 53.81658 10.77717 647 ft 95 kts 257°
2026-04-25 20:40 53.81452 10.76674 527 ft 94 kts 257°
2026-04-25 20:40 53.81151 10.75284 330 ft 96 kts 256°
2026-04-25 20:40 53.80972 10.74198 213 ft 99 kts 254°
2026-04-25 20:40 53.80754 10.73103 86 ft 96 kts 256°
2026-04-25 20:41 53.80576 10.72219 54 ft 60 kts 254°
2026-04-25 20:41 53.80471 10.71651 56 ft 45 kts 250°
2026-04-25 20:41 53.80383 10.71175 56 ft 41 kts 251°
2026-04-25 20:41 53.80306 10.70766 54 ft 25 kts 251°
2026-04-25 20:42 53.80341 10.70563 52 ft 21 kts 323°
2026-04-25 20:42 53.80445 10.70432 53 ft 15 kts 298°
2026-04-25 20:42 53.80414 10.70291 52 ft 6 kts 264°
2026-04-25 20:42 53.80437 10.70257 52 ft 1 kts 342°
2026-04-25 20:43 53.80466 10.70295 53 ft 4 kts 70°
2026-04-25 20:43 53.80481 10.70312 53 ft 1 kts 323°
2026-04-25 20:43 53.80481 10.70311 53 ft 0 kts 324°
2026-04-25 20:50 53.80482 10.70312 53 ft 0 kts 325°